Stations météo

Publicité
Cap-de-la Heve, France (7028): Température de l'air & dewpoint: 10.02.2019 08:00:00 - 16.02.2019 08:00:00 (CET)Cap-de-la Heve, France (7028): Température de l'air 5cm: 10.02.2019 08:00:00 - 16.02.2019 08:00:00 (CET)Cap-de-la Heve, France (7028): Vitesse du vent & gusts: 10.02.2019 08:00:00 - 16.02.2019 08:00:00 (CET)Cap-de-la Heve, France (7028): Direction du vent: 10.02.2019 08:00:00 - 16.02.2019 08:00:00 (CET)Cap-de-la Heve, France (7028): reduced air pressure: 10.02.2019 08:00:00 - 16.02.2019 08:00:00 (CET)Cap-de-la Heve, France (7028): visibility: 10.02.2019 08:00:00 - 16.02.2019 08:00:00 (CET)Cap-de-la Heve, France (7028): Quantités de précipitations: 10.02.2019 08:00:00 - 16.02.2019 08:00:00 (CET)
Date & Time tt [°C] td [°C] tt 5cm [°C] ff [km/h] ff [knt] fx [km/h] fx [knt] dd ppp [hPa] vv [km] rr [mm]
16.02.2019 08:00:00 - - - - - - - - - - -
16.02.2019 07:00:00 8,0 1,4 6,8 11 6 23 12 SSE 1025,0 20 0,0
16.02.2019 06:00:00 8,6 1,0 7,5 12 7 22 12 SSE 1025,0 - 0,0
16.02.2019 05:00:00 9,0 0,7 7,8 14 7 26 14 S 1025,0 - 0,0
16.02.2019 04:00:00 9,3 0,7 8,2 12 7 20 11 SSE 1025,2 20 0,0
16.02.2019 03:00:00 9,6 0,5 8,3 13 7 18 10 SSE 1025,3 - 0,0
16.02.2019 02:00:00 10,1 0,1 8,9 14 7 19 11 S 1025,8 - 0,0
16.02.2019 01:00:00 10,4 0,1 8,9 11 6 17 9 S 1026,1 20 0,0
16.02.2019 00:00:00 10,5 0,2 9,3 13 7 19 10 SSE 1025,9 - 0,0
15.02.2019 23:00:00 11,1 1,3 10,1 15 8 21 12 SSE 1026,0 - 0,0
15.02.2019 22:00:00 11,2 1,1 10,3 16 9 24 13 SSE 1025,7 - 0,0
15.02.2019 21:00:00 11,5 1,4 10,6 17 9 23 13 SSE 1025,8 - 0,0
15.02.2019 20:00:00 12,8 2,6 11,0 15 8 22 12 SSE 1025,9 - 0,0
15.02.2019 19:00:00 12,9 3,8 11,2 8 5 13 7 SE 1026,0 15 0,0
15.02.2019 18:00:00 13,9 3,4 13,7 6 4 14 8 SE 1025,8 - 0,0
15.02.2019 17:00:00 15,2 3,3 17,6 6 3 13 7 S 1026,0 - 0,0
15.02.2019 16:00:00 15,1 3,2 18,7 9 5 15 8 S 1026,3 15 0,0
15.02.2019 15:00:00 14,9 1,7 18,8 10 5 16 9 S 1026,6 - 0,0
15.02.2019 14:00:00 14,1 2,3 17,9 9 5 16 8 SSE 1027,4 - 0,0
15.02.2019 13:00:00 13,3 1,6 15,9 9 5 15 8 SE 1028,0 15 0,0
15.02.2019 12:00:00 11,6 2,6 11,1 7 4 18 10 E 1028,6 - 0,0
15.02.2019 11:00:00 8,8 1,7 8,1 13 7 22 12 E 1028,6 - 0,0
15.02.2019 10:00:00 6,5 1,8 6,0 14 7 22 12 E 1028,9 - 0,0
15.02.2019 09:00:00 5,4 1,3 4,3 14 7 20 11 E 1029,1 - 0,0
15.02.2019 08:00:00 5,1 1,2 4,2 13 7 18 10 E 1029,0 - 0,0
15.02.2019 07:00:00 5,5 1,2 4,7 10 6 16 8 E 1029,0 15 0,0
15.02.2019 06:00:00 5,7 1,6 4,7 11 6 19 10 E 1029,0 - 0,0
15.02.2019 05:00:00 5,9 1,6 4,8 9 5 16 9 E 1028,9 - 0,0
15.02.2019 04:00:00 6,2 1,5 5,3 9 5 29 16 E 1029,0 20 0,0
15.02.2019 03:00:00 6,8 1,9 5,5 13 7 26 14 E 1029,3 - 0,0
15.02.2019 02:00:00 8,0 1,4 6,5 13 7 29 16 ESE 1029,6 - 0,0
15.02.2019 01:00:00 8,8 1,9 7,8 18 10 31 17 ESE 1029,6 20 0,0
15.02.2019 00:00:00 8,7 2,3 7,4 16 9 34 18 ESE 1029,7 - 0,0
14.02.2019 23:00:00 8,2 2,4 7,5 19 11 39 21 ESE 1030,0 - 0,0
14.02.2019 22:00:00 9,0 2,8 8,1 24 13 40 22 ESE 1029,8 20 0,0
14.02.2019 21:00:00 9,4 2,5 8,7 24 13 41 22 E 1030,1 - 0,0
14.02.2019 20:00:00 10,1 2,2 9,2 22 12 35 19 E 1030,2 - 0,0
14.02.2019 19:00:00 10,9 2,5 9,8 22 12 35 19 E 1030,0 15 0,0
14.02.2019 18:00:00 11,6 2,1 10,9 18 10 27 15 E 1029,9 - 0,0
14.02.2019 17:00:00 12,7 1,4 13,8 17 9 28 15 ESE 1030,2 - 0,0
14.02.2019 16:00:00 13,5 0,5 15,6 16 8 24 13 ESE 1030,4 15 0,0
14.02.2019 15:00:00 12,9 1,8 15,4 10 5 19 10 E 1031,3 - 0,0
14.02.2019 14:00:00 11,9 1,8 13,3 11 6 18 10 ESE 1032,0 - 0,0
14.02.2019 13:00:00 10,7 2,0 11,4 10 5 18 10 E 1032,7 15 0,0
14.02.2019 12:00:00 8,5 1,4 8,8 11 6 21 11 E 1033,0 - 0,0
14.02.2019 11:00:00 6,5 0,8 6,2 13 7 23 12 E 1033,2 - 0,0
14.02.2019 10:00:00 4,8 0,6 3,9 11 6 22 12 E 1033,3 6 0,0
14.02.2019 09:00:00 3,3 0,3 2,4 16 8 26 14 E 1033,2 - 0,0
14.02.2019 08:00:00 3,4 0,1 2,6 15 8 24 13 E 1032,7 - 0,0
14.02.2019 07:00:00 3,7 0,0 2,9 14 8 21 12 E 1032,9 30 0,0
14.02.2019 06:00:00 3,6 -0,1 2,9 14 8 21 11 E 1033,1 - 0,0
14.02.2019 05:00:00 3,7 -0,3 3,0 13 7 19 11 E 1033,0 - 0,0
14.02.2019 04:00:00 4,2 -0,4 3,2 11 6 17 9 E 1033,1 20 0,0
14.02.2019 03:00:00 4,5 -0,7 3,3 11 6 34 19 ESE 1033,3 - 0,0
14.02.2019 02:00:00 5,4 -1,1 4,8 27 15 42 23 SE 1032,7 - 0,0
14.02.2019 01:00:00 5,5 -1,2 4,9 22 12 39 21 ESE 1033,1 20 0,0
14.02.2019 00:00:00 5,7 -1,0 5,2 27 15 41 22 ESE 1033,0 - 0,0
13.02.2019 23:00:00 6,2 0,1 5,6 22 12 37 20 ESE 1033,3 - 0,0
13.02.2019 22:00:00 6,5 0,8 5,8 21 11 35 19 ESE 1033,4 20 0,0
13.02.2019 21:00:00 6,8 1,5 6,2 23 12 36 20 ESE 1033,3 - 0,0
13.02.2019 20:00:00 7,3 1,8 6,5 15 8 25 13 E 1034,0 - 0,0
13.02.2019 19:00:00 8,1 1,9 7,3 16 9 26 14 E 1033,6 20 0,0
13.02.2019 18:00:00 9,3 2,2 9,0 8 4 14 8 SE 1033,2 - 0,0
13.02.2019 17:00:00 10,4 2,0 13,0 4 2 9 5 SSE 1033,6 - 0,0
13.02.2019 16:00:00 10,5 2,1 13,1 3 2 11 6 SSW 1033,8 20 0,0
13.02.2019 15:00:00 10,0 1,9 13,0 9 5 23 12 S 1034,0 - 0,0
13.02.2019 14:00:00 9,7 2,3 11,9 11 6 22 12 S 1034,5 - 0,0
13.02.2019 13:00:00 8,8 1,7 10,8 13 7 21 11 SSE 1035,0 - 0,0
13.02.2019 12:00:00 7,5 1,6 8,8 13 7 23 12 SSE 1035,5 - 0,0
13.02.2019 11:00:00 6,1 0,8 6,9 14 8 24 13 SE 1035,5 - 0,0
13.02.2019 10:00:00 4,9 0,8 4,0 13 7 19 11 SE 1035,8 20 0,0
13.02.2019 09:00:00 3,7 1,1 2,8 9 5 16 8 E 1035,9 - 0,0
13.02.2019 08:00:00 3,6 1,0 2,7 8 4 18 10 ESE 1035,6 - 0,0
13.02.2019 07:00:00 4,7 1,4 3,7 12 6 18 10 SSE 1035,3 - 0,0
13.02.2019 06:00:00 4,8 1,5 3,6 9 5 16 8 SE 1035,5 - 0,0
13.02.2019 05:00:00 4,9 1,7 4,0 10 5 19 10 SSE 1035,5 - 0,0
13.02.2019 04:00:00 5,0 2,2 3,1 9 5 18 10 SSE 1035,7 20 0,0
13.02.2019 03:00:00 4,4 1,8 3,3 8 4 11 6 E 1035,7 - 0,0
13.02.2019 02:00:00 5,2 1,7 3,6 5 3 13 7 SE 1035,9 - 0,0
13.02.2019 01:00:00 6,0 1,9 4,3 9 5 14 8 SE 1035,8 20 0,0
13.02.2019 00:00:00 5,8 1,5 4,3 6 3 12 7 E 1036,2 - 0,0
12.02.2019 23:00:00 6,0 1,5 4,4 7 4 11 6 E 1035,9 - -
12.02.2019 22:00:00 - - - - - - - - - - -
12.02.2019 21:00:00 - - - - - - - - - - -
12.02.2019 20:00:00 7,0 1,7 - 4 2 6 3 SE 1036,1 - 0,0
12.02.2019 19:00:00 6,8 1,5 - 3 2 5 3 SSE 1035,9 25 0,0
12.02.2019 18:00:00 8,2 1,8 - 3 2 8 4 WSW 1035,7 - 0,0
12.02.2019 17:00:00 9,0 1,9 - 5 3 11 6 S 1035,6 - 0,0
12.02.2019 16:00:00 8,8 2,8 - 7 4 13 7 SSW 1035,4 20 0,0
12.02.2019 15:00:00 8,5 2,9 - 7 4 14 8 SW 1035,6 - 0,0
12.02.2019 14:00:00 7,9 2,8 - 7 4 12 7 WSW 1036,0 - 0,0
12.02.2019 13:00:00 7,2 3,2 - 6 3 14 7 SW 1036,3 20 0,0
12.02.2019 12:00:00 6,7 3,5 - 6 3 17 9 SSW 1036,5 - 0,0
12.02.2019 11:00:00 6,1 2,9 - 5 3 20 11 E 1036,1 - -
12.02.2019 10:00:00 - - - - - - - - - - -
12.02.2019 09:00:00 - - - - - - - - - - -
12.02.2019 08:00:00 - - - - - - - - - - -
12.02.2019 07:00:00 - - - - - - - - - - -
12.02.2019 06:00:00 - - - - - - - - - - -
12.02.2019 05:00:00 4,8 2,0 4,5 7 4 11 6 SSE 1034,8 - 0,0
12.02.2019 04:00:00 5,0 1,7 4,6 7 4 14 7 S 1035,0 20 0,0
12.02.2019 03:00:00 5,0 1,8 4,7 4 2 12 6 SSE 1034,7 - 0,0
12.02.2019 02:00:00 5,0 2,9 4,8 8 4 13 7 S 1034,7 - 0,0
12.02.2019 01:00:00 5,7 2,2 3,1 6 3 13 7 SSE 1034,4 20 0,0
12.02.2019 00:00:00 5,8 0,7 3,6 2 1 12 6 NNE 1033,7 - 0,0
11.02.2019 23:00:00 6,3 0,6 4,5 2 1 7 4 W 1033,6 - 0,0
11.02.2019 22:00:00 6,8 1,5 5,5 0 0 6 3 N 1033,5 - 0,0
11.02.2019 21:00:00 6,7 1,8 5,6 2 1 7 4 W 1033,0 - 0,0
11.02.2019 20:00:00 6,7 2,4 5,9 0 0 8 4 N 1032,3 - 0,0
11.02.2019 19:00:00 6,9 1,6 6,6 5 3 16 8 NNE 1031,5 20 0,0
11.02.2019 18:00:00 7,1 2,4 6,9 6 3 21 12 N 1030,9 - 0,0
11.02.2019 17:00:00 7,4 2,1 7,8 8 5 19 11 N 1029,9 - 0,0
11.02.2019 16:00:00 8,1 2,3 9,9 11 6 24 13 N 1029,0 20 0,0
11.02.2019 15:00:00 7,8 2,9 9,8 14 8 24 13 NNW 1028,3 - 0,0
11.02.2019 14:00:00 7,7 3,7 8,3 13 7 28 15 NNW 1027,6 - 0,0
11.02.2019 13:00:00 7,0 3,4 7,2 12 7 33 18 N 1026,6 15 0,0
11.02.2019 12:00:00 6,9 4,0 7,4 16 9 38 20 N 1025,7 - 0,0
11.02.2019 11:00:00 7,5 4,3 9,4 16 9 37 20 N 1023,8 - 0,0
11.02.2019 10:00:00 7,3 4,1 6,2 19 11 45 24 N 1022,3 - 0,0
11.02.2019 09:00:00 6,7 5,2 5,9 26 14 44 24 NNW 1020,9 - 0,8
11.02.2019 08:00:00 6,8 4,5 5,9 23 13 53 29 NNW 1019,1 - 0,0
11.02.2019 07:00:00 7,0 4,8 5,9 29 16 51 27 NW 1017,8 15 0,6
11.02.2019 06:00:00 6,7 4,9 5,3 32 18 52 28 W 1016,8 - 0,0
11.02.2019 05:00:00 6,1 4,3 5,3 34 19 55 30 W 1016,3 - 0,0
11.02.2019 04:00:00 6,5 3,8 6,0 29 15 54 29 WSW 1016,1 - 0,0
11.02.2019 03:00:00 6,3 3,6 5,9 34 19 53 29 W 1015,5 - 0,0
11.02.2019 02:00:00 6,2 3,5 6,0 20 11 49 26 SW 1015,5 - 0,0
11.02.2019 01:00:00 6,2 2,1 5,8 22 12 61 33 W 1014,9 15 0,0
11.02.2019 00:00:00 7,0 2,3 5,9 21 11 48 26 WNW 1014,0 - 0,0
10.02.2019 23:00:00 6,8 2,5 5,3 27 14 56 30 WNW 1013,1 - 0,0
10.02.2019 22:00:00 6,9 1,8 5,8 27 15 56 31 NW 1012,2 15 0,0
10.02.2019 21:00:00 7,0 2,5 5,8 25 14 58 32 WNW 1011,3 - 0,0
10.02.2019 20:00:00 6,4 3,2 5,6 15 8 67 36 WNW 1009,9 - 0,0
10.02.2019 19:00:00 7,2 1,9 6,0 29 16 60 32 WNW 1008,2 10 0,0
10.02.2019 18:00:00 7,1 2,2 5,3 33 18 66 36 WNW 1006,1 - 0,0
10.02.2019 17:00:00 5,6 3,4 4,3 25 14 66 36 WNW 1005,0 - 0,6
10.02.2019 16:00:00 7,6 3,6 8,0 34 18 67 36 WNW 1003,1 10 0,0
10.02.2019 15:00:00 7,9 4,3 6,8 29 15 66 36 WNW 1001,3 - 0,0
10.02.2019 14:00:00 6,1 4,4 5,2 33 18 86 47 NW 999,6 - 0,4
10.02.2019 13:00:00 6,8 4,1 6,2 21 12 75 41 WNW 997,8 - 0,0
10.02.2019 12:00:00 6,5 5,3 6,0 37 20 78 42 WSW 996,9 - 0,0
10.02.2019 11:00:00 6,0 5,3 5,2 34 18 87 47 WSW 995,6 - 1,6
10.02.2019 10:00:00 6,5 5,4 6,0 29 16 64 34 SW 995,2 12 0,0
10.02.2019 09:00:00 6,4 5,0 5,9 30 16 74 40 WSW 994,7 - 0,2
10.02.2019 08:00:00 7,4 6,3 6,9 29 16 56 30 SW 993,9 - 0,0

tt = Température de l'air
td = dewpoint
tt 5cm = Température de l'air 5cm
ff = Vitesse du vent
fx = gusts
dd = Direction du vent
ppp = reduced air pressure
vv = visibility
rr = Quantités de précipitations

stations d'obs. à proximité